Terminal Aerodrome Forecast
Issued by NWS Atlanta, GA

Home | Current Version | Previous Version | Text Only | Print | Product List | Glossary On
Versions: 1 2 3 4 5 6 7 8 9 10 11 12 13 14
298
FTUS42 KFFC 090210 AAA
TAFCSG
TAF AMD
KCSG 090210Z 0902/0924 32011KT P6SM SCT070
     FM090600 29008KT P6SM BKN070
     FM091100 29011G18KT P6SM SCT040 BKN050
     FM091800 29014G24KT P6SM BKN040=

USA.gov is the U.S. government's official web portal to all federal, state and local government web resources and services.